Погода в Возрождении

Россия / Санкт-Петербург и Ленинградская область     60°51′38″N   28°57′50″E
темп.,
°C
ветер,
м/с
пор.,
м/с
влажн.,
%
обл.,
%
осадки,
мм/ч
давл.,
гПа
погр.,
м
1 августа, вс
вс100:00+15ююз38915 0.0 1000214
03:00+16юз399512 0.0 1001396
06:00+16ююз3895100 0.1 1001437
09:00+17ю4889100 0.8 1001612
12:00+19ю467195 0.3 1000962
15:00+22юз69485 1.5 10001419
18:00+21юз595495 0.0 9991305
21:00+17юз38800 0.0 1000423
2 августа, пн
пн200:00+16юз411865 0.0 1001532
03:00+16юз41082100 0.0 1002668
06:00+15юз4980100 0.1 1003593
09:00+19юз576788 0.1 10031158
12:00+21юз4552100 0.1 10031389
15:00+22юз455280 0.1 10021500
18:00+21юз3451100 0.0 1001928
21:00+17юз2474100 0.0 1001105
3 августа, вт
вт300:00+16зюз2477100 0.0 1000102
03:00+15зюз1681100 0.0 1000207
06:00+14юз268628 0.1 1000199
09:00+18зюз46620 0.1 10001048
12:00+20юз565313 0.0 10011467
15:00+17з6662100 0.1 10031299
18:00+16з476894 0.2 10051057
21:00+14зсз266398 0.3 1007182
4 августа, ср
ср400:00+11з27705 0.0 1009130
03:00+9зсз11784 0.0 101113
06:00+10зсз11753 0.0 101218
09:00+18сз13421 0.0 1014800
12:00+21зюз34295 0.0 10142491
15:00+21юз433110 0.0 10152093
18:00+19юз44390 0.0 10151170
21:00+14юз24675 0.0 101673
5 августа, чт
чт500:00+11юз117648 0.0 101611
03:00+10ююв227993 0.0 101615
06:00+13вюв116896 0.0 101626
09:00+18вюв124558 0.0 1016439
12:00+22ю133996 0.2 10152247
15:00+23юв12388 0.2 10151536
18:00+20вюв1250100 0.0 101465
21:00+16в36687 0.0 1014131